Sturgeon Bay, WI

9:45 AM CST on December 06, 2019 (GMT -0600)
Door County Cherryland

Weather History for KSUE - August, 2019

Change the Weather History Date:

Sunday, August 18, 2019

  Actual Average Record
Temperature  
Mean Temperature 70 °F -  
Max Temperature 77 °F 76 °F 99 °F (1955)
Min Temperature 64 °F 56 °F 39 °F (1963)
Cooling Degree Days 4    
Growing Degree Days 20 (Base 50)    
Moisture  
Dew Point 66 °F    
Average Humidity 87    
Maximum Humidity 100    
Minimum Humidity 65    
Precipitation  
Precipitation 0.00 in - - ()
Sea Level Pressure  
Sea Level Pressure 29.76 in    
Wind  
Wind Speed 10 mph (SSW)    
Max Wind Speed 22 mph    
Max Gust Speed 28 mph    
Visibility 7 miles    
Events Rain    
Averages and records for this station are not official NWS values.
T = Trace of Precipitation, MM = Missing Value Source: NWS Daily Summary

Daily Weather History Graph

Daily Weather History Graph

Search for Another Location

Airport or City:

Astronomy

Aug. 18, 2019 Rise Set
Actual Time 5:55 AM CDT 7:51 PM CDT
Civil Twilight 5:23 AM CDT 8:22 PM CDT
Nautical Twilight 4:44 AM CDT 9:01 PM CDT
Astronomical Twilight 4:02 AM CDT 9:43 PM CDT
Moon 9:38 PM CDT (8/18) 8:45 AM CDT (8/18)
Length of Visible Light 14h 59m
Length of Day
13h 56m
Waning Gibbous, 91% of the Moon is Illuminated
Aug 18
Waning Gibbous
Aug 23
Last Quarter
Aug 30
New
Sep 5
First Quarter
Sep 13
Full

Hourly Weather History & Observations

Time (CDT) Temp. Dew Point Humidity Pressure Visibility Wind Dir Wind Speed Gust Speed Precip Events Conditions
12:56 AM 64.9 °F 64.0 °F 97% 29.86 in 10.0 mi South 5.8 mph - N/A   Clear
1:56 AM 66.0 °F 66.0 °F 100% 29.83 in 4.0 mi South 6.9 mph - N/A   Clear
2:19 AM 66.2 °F 66.2 °F 100% 29.83 in 7.0 mi SSE 9.2 mph - N/A   Mostly Cloudy
2:56 AM 68.0 °F 66.9 °F 96% 29.82 in 9.0 mi South 8.1 mph - N/A   Overcast
3:47 AM 68.0 °F 66.2 °F 94% 29.83 in 2.5 mi South 9.2 mph - N/A   Overcast
3:56 AM 68.0 °F 66.9 °F 96% 29.81 in 3.0 mi South 5.8 mph - N/A   Mostly Cloudy
4:10 AM 68.0 °F 66.2 °F 94% 29.81 in 6.0 mi South 6.9 mph - N/A   Mostly Cloudy
4:30 AM 68.0 °F 68.0 °F 100% 29.81 in 5.0 mi South 8.1 mph - N/A   Mostly Cloudy
4:49 AM 69.8 °F 68.0 °F 94% 29.80 in 5.0 mi South 6.9 mph - N/A   Overcast
4:56 AM 68.0 °F 66.9 °F 96% 29.78 in 6.0 mi SSE 5.8 mph - N/A   Overcast
5:56 AM 69.1 °F 68.0 °F 96% 29.72 in 3.0 mi SE 9.2 mph - N/A   Mostly Cloudy
6:07 AM 69.8 °F 68.0 °F 94% 29.72 in 1.8 mi SE 11.5 mph - N/A   Mostly Cloudy
6:17 AM 69.8 °F 68.0 °F 94% 29.73 in 0.8 mi SE 9.2 mph - N/A   Overcast
6:28 AM 69.8 °F 69.8 °F 100% 29.72 in 1.2 mi SE 11.5 mph - N/A   Overcast
6:41 AM 69.8 °F 69.8 °F 100% 29.75 in 2.0 mi SSE 13.8 mph 17.3 mph N/A   Overcast
6:56 AM 69.1 °F 69.1 °F 100% 29.75 in 2.5 mi South 10.4 mph - N/A   Overcast
7:15 AM 69.8 °F 69.8 °F 100% 29.77 in 1.8 mi SSE 12.7 mph - N/A   Overcast
7:20 AM 69.8 °F 69.8 °F 100% 29.76 in 3.0 mi SSE 10.4 mph - N/A   Overcast
7:56 AM 70.0 °F 69.1 °F 97% 29.74 in 7.0 mi SSE 12.7 mph 19.6 mph N/A   Overcast
8:56 AM 71.1 °F 69.1 °F 93% 29.69 in 8.0 mi South 16.1 mph 24.2 mph N/A   Overcast
9:29 AM 71.6 °F 69.8 °F 94% 29.68 in 10.0 mi SSE 13.8 mph 24.2 mph N/A   Overcast
9:56 AM 71.1 °F 70.0 °F 96% 29.65 in 10.0 mi SSE 13.8 mph 23.0 mph 0.00 in Rain Light Rain
10:56 AM 73.9 °F 69.1 °F 85% 29.69 in 10.0 mi SSW 10.4 mph - 0.00 in   Overcast
11:12 AM 73.4 °F 66.2 °F 78% 29.69 in 10.0 mi SW 11.5 mph 18.4 mph N/A   Overcast
11:56 AM 75.9 °F 66.0 °F 71% 29.69 in 10.0 mi SSW 12.7 mph 20.7 mph N/A   Overcast
12:30 PM 75.2 °F 62.6 °F 65% 29.72 in 10.0 mi SW 17.3 mph 27.6 mph N/A   Mostly Cloudy
12:56 PM 73.9 °F 63.0 °F 68% 29.71 in 10.0 mi WSW 15.0 mph 24.2 mph N/A   Overcast
1:56 PM 73.9 °F 64.0 °F 71% 29.70 in 10.0 mi SW 21.9 mph 26.5 mph N/A   Mostly Cloudy
2:56 PM 75.0 °F 64.9 °F 71% 29.71 in 10.0 mi WSW 19.6 mph 25.3 mph N/A   Overcast
3:56 PM 75.9 °F 64.9 °F 69% 29.72 in 10.0 mi WSW 17.3 mph 24.2 mph N/A   Clear
4:56 PM 75.0 °F 64.9 °F 71% 29.73 in 10.0 mi WSW 13.8 mph 21.9 mph N/A   Clear
5:56 PM 75.9 °F 64.0 °F 67% 29.75 in 10.0 mi West 16.1 mph - N/A   Clear
6:56 PM 73.9 °F 64.0 °F 71% 29.76 in 10.0 mi WSW 9.2 mph - N/A   Partly Cloudy
7:56 PM 72.0 °F 63.0 °F 73% 29.78 in 10.0 mi WSW 6.9 mph - N/A   Clear
8:56 PM 70.0 °F 63.0 °F 78% 29.81 in 10.0 mi WSW 6.9 mph - N/A   Clear
9:56 PM 70.0 °F 64.0 °F 81% 29.84 in 10.0 mi WNW 6.9 mph - N/A   Mostly Cloudy
10:56 PM 68.0 °F 62.1 °F 81% 29.86 in 10.0 mi West 3.5 mph - N/A   Clear
11:56 PM 66.0 °F 59.0 °F 78% 29.88 in 10.0 mi NW 3.5 mph - N/A   Clear